User: anonymous   Login
Location: Bakov nad Jizerou
(50.4784°N, 14.9394°E)
Time: 18:08:20
(UTC+00:00)
Language:

ONEWEB-0358 - Orbit

View from above orbital plane
View from above orbital plane
View from above satellite
View from above satellite

Ground track
Ground track

The orbit data is extracted from the following two-line orbital elements,

1 49284U 21090F   22222.91667824 -.01431313  00000-0 -76044+0 0  9990
2 49284  87.7619 194.7987 0004126  48.4357  81.8635 14.16978036  1306
Epoch (UTC): 10 August 2022 22:00:01
Eccentricity: 0.0004126
inclination: 87.7619°
perigee height: 832 km
apogee height: 838 km
right ascension of ascending node: 194.7987°
argument of perigee: 48.4357°
revolutions per day: 14.16978036
mean anomaly at epoch: 81.8635°
orbit number at epoch: 130

The dashed part of the orbit path shows where the satellite is in the earth's shadow,  

DLR